GW3945 Weather Reports


Display with metric or nautical units.
time (UTC)temp
F
wind
direction
speed
MPH
gust
MPH
rain 1hr
in
rain 24hr
in
rain mn
in
humidity
%
barometer
mb
20260507142025 55 177 0.0 0.0 0.00 0.00 0.00 79 1014.6
20260507141521 55 207 0.0 0.0 0.00 0.00 0.00 73 1014.3
20260507141017 55 192 2.0 3.0 0.00 0.00 0.00 73 1014.5
20260507140514 54 220 0.0 0.0 0.00 0.00 0.00 74 1014.5
20260507140012 53 257 0.0 0.0 0.00 0.00 0.00 76 1014.2
20260507135509 53 255 3.0 3.0 0.00 0.00 0.00 76 1014.4
20260507135006 53 204 0.0 1.0 0.00 0.00 0.00 83 1014.4
20260507134502 53 256 0.0 0.0 0.00 0.00 0.00 82 1014.2
20260507133958 52 192 1.0 1.0 0.00 0.00 0.00 79 1014.2
20260507133454 52 180 0.0 0.0 0.00 0.00 0.00 86 1014.3
20260507132953 52 170 0.0 0.0 0.00 0.00 0.00 84 1014.2
20260507132449 51 155 0.0 0.0 0.00 0.00 0.00 82 1014.0
20260507131945 51 236 0.0 0.0 0.00 0.00 0.00 86 1014.3
20260507131442 50 180 0.0 0.0 0.00 0.00 0.00 84 1014.3
20260507130939 50 177 0.0 0.0 0.00 0.00 0.00 88 1014.0
20260507130436 50 170 1.0 1.0 0.00 0.00 0.00 87 1014.2
20260507125935 49 319 2.0 2.0 0.00 0.00 0.00 90 1014.4
20260507125433 49 183 0.0 0.0 0.00 0.00 0.00 93 1014.2
20260507124930 49 286 0.0 1.0 0.00 0.00 0.00 93 1014.3
20260507124426 48 275 1.0 2.0 0.00 0.00 0.00 95 1014.2
20260507123924 47 187 0.0 1.0 0.00 0.00 0.00 96 1014.2
20260507123422 47 193 0.0 0.0 0.00 0.00 0.00 97 1014.0
20260507122918 47 194 0.0 0.0 0.00 0.00 0.00 97 1013.9
20260507122413 47 184 0.0 0.0 0.00 0.00 0.00 98 1014.0
20260507121910 47 174 0.0 0.0 0.00 0.00 0.00 98 1014.0
20260507121405 47 180 0.0 0.0 0.00 0.00 0.00 98 1013.9
20260507120902 47 177 0.0 0.0 0.00 0.00 0.00 98 1013.9
20260507120358 47 181 0.0 0.0 0.00 0.00 0.00 98 1013.8
20260507115854 47 177 0.0 0.0 0.00 0.00 0.00 98 1013.8
20260507115350 47 174 0.0 0.0 0.00 0.00 0.00 98 1013.8
20260507114846 47 166 0.0 0.0 0.00 0.00 0.00 97 1013.8
20260507114343 47 172 0.0 0.0 0.00 0.00 0.00 97 1013.6
20260507113841 47 174 0.0 0.0 0.00 0.00 0.00 97 1013.7
20260507113338 47 176 0.0 0.0 0.00 0.00 0.00 97 1013.5
20260507112835 47 166 0.0 0.0 0.00 0.00 0.00 97 1013.4
20260507112332 47 168 0.0 0.0 0.00 0.00 0.00 97 1013.4
20260507111830 47 180 0.0 0.0 0.00 0.00 0.00 96 1013.3
20260507111326 47 179 0.0 1.0 0.00 0.00 0.00 96 1013.0
20260507110822 47 178 0.0 0.0 0.00 0.00 0.00 97 1013.0
20260507110319 47 171 0.0 0.0 0.00 0.00 0.00 97 1013.2
20260507105816 47 166 0.0 0.0 0.00 0.00 0.00 96 1013.2
20260507105312 47 170 0.0 0.0 0.00 0.00 0.00 97 1012.9
20260507104809 47 170 0.0 0.0 0.00 0.00 0.00 97 1013.0
20260507104306 47 209 0.0 0.0 0.00 0.00 0.00 97 1012.8
20260507103802 47 213 0.0 0.0 0.00 0.00 0.00 97 1012.8
20260507103258 47 190 0.0 0.0 0.00 0.00 0.00 97 1013.2
20260507102755 47 191 0.0 0.0 0.00 0.00 0.00 97 1012.8
20260507102252 47 175 0.0 0.0 0.00 0.00 0.00 97 1012.7
20260507101748 48 175 0.0 0.0 0.00 0.00 0.00 97 1012.5
20260507101243 48 172 0.0 0.0 0.00 0.00 0.00 97 1012.5
20260507100740 48 174 0.0 0.0 0.00 0.00 0.00 96 1012.4
20260507100238 48 177 0.0 0.0 0.00 0.00 0.00 96 1012.7
20260507095736 48 174 0.0 0.0 0.00 0.00 0.00 96 1012.8
20260507095232 48 176 0.0 0.0 0.00 0.00 0.00 97 1012.7
20260507094729 48 180 1.0 1.0 0.00 0.00 0.00 97 1012.7
20260507094226 48 173 0.0 0.0 0.00 0.00 0.00 98 1012.7
20260507093723 48 175 0.0 0.0 0.00 0.00 0.00 98 1012.8
20260507093221 49 169 0.0 0.0 0.00 0.00 0.00 98 1012.7
20260507092719 49 170 0.0 0.0 0.00 0.00 0.00 98 1012.6
20260507092215 49 170 0.0 0.0 0.00 0.00 0.00 98 1012.9
20260507091711 49 177 0.0 0.0 0.00 0.00 0.00 98 1012.6
20260507091208 49 187 0.0 0.0 0.00 0.00 0.00 98 1012.8
20260507090703 49 167 0.0 0.0 0.00 0.00 0.00 98 1012.6
20260507090200 49 183 0.0 0.0 0.00 0.00 0.00 98 1012.4
20260507085657 49 172 0.0 0.0 0.00 0.00 0.00 98 1012.4
20260507085154 49 177 0.0 0.0 0.00 0.00 0.00 98 1012.5
20260507084651 49 213 0.0 0.0 0.00 0.00 0.00 98 1012.7
20260507084148 49 174 0.0 0.0 0.00 0.00 0.00 98 1012.9
20260507083644 49 164 0.0 0.0 0.00 0.00 0.00 98 1012.6
20260507083142 49 198 0.0 0.0 0.00 0.00 0.00 98 1012.9
20260507082637 49 169 0.0 0.0 0.00 0.00 0.00 98 1013.0
20260507082134 50 169 0.0 0.0 0.00 0.00 0.00 98 1012.5
20260507081631 50 175 0.0 0.0 0.00 0.00 0.00 98 1012.6
20260507081127 50 171 0.0 0.0 0.00 0.00 0.00 99 1012.4
20260507080623 50 174 0.0 0.0 0.00 0.00 0.00 98 1012.6
20260507080120 50 173 0.0 0.0 0.00 0.00 0.00 99 1012.5
20260507075620 49 195 0.0 0.0 0.00 0.00 0.00 99 1012.5
20260507075116 50 168 0.0 0.0 0.00 0.00 0.00 99 1012.8
20260507074613 50 177 0.0 0.0 0.00 0.00 0.00 99 1012.8
20260507074112 50 204 0.0 0.0 0.00 0.00 0.00 99 1012.9
20260507073608 50 175 0.0 0.0 0.00 0.00 0.00 99 1012.7
20260507073104 50 182 0.0 0.0 0.00 0.00 0.00 99 1012.8
20260507072602 50 204 0.0 0.0 0.00 0.00 0.00 99 1012.8
20260507072059 50 179 0.0 0.0 0.00 0.00 0.00 99 1012.7
20260507071556 50 180 0.0 0.0 0.00 0.00 0.00 99 1012.9
20260507071052 50 181 0.0 0.0 0.00 0.00 0.00 99 1012.8
20260507070549 50 194 0.0 0.0 0.00 0.00 0.00 99 1012.8
20260507070046 50 177 0.0 0.0 0.00 0.00 0.00 99 1013.2
20260507065543 50 176 0.0 0.0 0.00 0.00 0.00 99 1013.3
20260507065040 50 183 0.0 0.0 0.00 0.00 0.00 99 1012.9
20260507064538 50 179 0.0 0.0 0.00 0.00 0.00 99 1012.8
20260507064036 50 190 0.0 0.0 0.00 0.00 0.00 99 1012.9
20260507063533 50 181 0.0 0.0 0.00 0.00 0.00 99 1012.8
20260507063031 50 190 0.0 0.0 0.00 0.00 0.00 99 1012.5
20260507062527 50 181 0.0 0.0 0.00 0.00 0.00 99 1012.7
20260507062025 50 176 0.0 0.0 0.00 0.00 0.00 99 1012.4
20260507061522 51 174 0.0 0.0 0.00 0.00 0.00 99 1012.6
20260507061020 50 180 0.0 0.0 0.00 0.00 0.00 99 1012.8
20260507060518 50 176 0.0 0.0 0.00 0.00 0.00 99 1012.6
20260507060014 50 175 0.0 0.0 0.00 0.00 0.00 99 1012.4
20260507055509 50 175 0.0 0.0 0.00 0.00 0.00 99 1012.7
20260507055006 50 182 0.0 0.0 0.00 0.00 0.00 99 1012.6
20260507054501 50 179 0.0 0.0 0.00 0.00 0.00 99 1012.5
20260507053959 50 184 0.0 0.0 0.00 0.00 0.00 99 1013.0
20260507053457 50 192 0.0 0.0 0.00 0.00 0.00 99 1013.2
20260507052955 50 179 0.0 0.0 0.00 0.00 0.00 99 1013.2
20260507052452 50 184 0.0 0.0 0.00 0.00 0.00 99 1013.4
20260507051949 51 190 0.0 0.0 0.00 0.00 0.00 99 1013.4
20260507051447 51 176 0.0 0.0 0.00 0.00 0.00 99 1013.5
20260507050943 51 176 0.0 0.0 0.00 0.00 0.00 99 1013.3
20260507050440 51 176 0.0 0.0 0.00 0.00 0.00 99 1013.4
20260507045937 51 179 0.0 0.0 0.00 0.17 0.17 99 1013.6
20260507045433 51 179 0.0 0.0 0.00 0.17 0.17 99 1013.4
20260507044931 51 187 0.0 0.0 0.00 0.17 0.17 99 1013.8
20260507044427 51 191 0.0 0.0 0.00 0.17 0.17 99 1013.6
20260507043923 51 178 0.0 0.0 0.00 0.17 0.17 99 1013.6
20260507043420 51 184 0.0 0.0 0.00 0.17 0.17 99 1013.5
20260507042916 51 184 0.0 0.0 0.00 0.17 0.17 99 1013.2
20260507042413 51 188 0.0 0.0 0.00 0.17 0.17 99 1013.3
20260507041908 51 171 0.0 0.0 0.00 0.17 0.17 99 1012.9
20260507041405 51 171 0.0 0.0 0.00 0.17 0.17 99 1013.2
20260507040903 51 173 0.0 0.0 0.00 0.17 0.17 99 1013.2
20260507040358 51 189 0.0 0.0 0.00 0.17 0.17 99 1013.0
20260507035854 51 181 0.0 0.0 0.00 0.17 0.17 99 1013.0
20260507035351 52 179 0.0 0.0 0.00 0.17 0.17 99 1012.7
20260507034848 51 180 0.0 0.0 0.00 0.17 0.17 99 1012.8
20260507034345 51 175 0.0 0.0 0.00 0.17 0.17 99 1012.9
20260507033843 52 170 0.0 0.0 0.00 0.17 0.17 99 1013.2
20260507033341 52 189 0.0 0.0 0.00 0.17 0.17 99 1013.3
20260507032837 52 179 0.0 0.0 0.00 0.17 0.17 99 1013.2
20260507032333 52 185 0.0 0.0 0.00 0.17 0.17 99 1013.2
20260507031830 52 178 0.0 0.0 0.00 0.17 0.17 99 1013.4
20260507031327 52 179 0.0 0.0 0.00 0.17 0.17 99 1013.3
20260507030823 52 177 0.0 0.0 0.00 0.17 0.17 99 1013.2
20260507030321 52 175 0.0 0.0 0.00 0.17 0.17 99 1012.4
20260507025818 52 181 0.0 0.0 0.00 0.17 0.17 99 1012.6
20260507025315 52 171 0.0 0.0 0.00 0.17 0.17 99 1012.4
20260507024813 52 176 0.0 0.0 0.00 0.17 0.17 99 1012.4
20260507024310 52 171 0.0 0.0 0.00 0.17 0.17 99 1012.4
20260507023806 52 166 0.0 0.0 0.00 0.17 0.17 99 1012.8
20260507023302 52 223 0.0 0.0 0.00 0.17 0.17 99 1013.5
20260507022800 52 230 1.0 1.0 0.00 0.17 0.17 99 1013.4
20260507022256 52 171 0.0 0.0 0.00 0.17 0.17 99 1012.9
20260507021752 52 180 0.0 0.0 0.07 0.17 0.17 99 1013.5
20260507021248 52 178 0.0 0.0 0.07 0.17 0.17 99 1013.3
20260507020746 52 186 0.0 0.0 0.07 0.17 0.17 99 1013.0
20260507020242 52 180 0.0 0.0 0.00 0.16 0.16 99 1013.0
20260507015740 52 173 0.0 0.0 0.00 0.16 0.16 98 1012.9
20260507015237 52 170 0.0 0.0 0.00 0.16 0.16 98 1012.6
20260507014734 52 170 0.0 0.0 0.00 0.16 0.16 98 1013.0
20260507014230 52 172 0.0 0.0 0.00 0.16 0.16 98 1013.5
20260507013727 52 173 0.0 0.0 0.00 0.16 0.16 98 1013.5
20260507013224 52 175 0.0 0.0 0.00 0.16 0.16 98 1013.9
20260507012721 52 186 0.0 0.0 0.00 0.16 0.16 98 1014.1
20260507012217 52 193 0.0 0.0 0.00 0.16 0.16 98 1013.8
20260507011715 52 208 0.0 0.0 0.00 0.16 0.16 98 1013.8
20260507011211 52 202 0.0 0.0 0.00 0.16 0.16 98 1013.7
20260507010711 52 204 0.0 0.0 0.00 0.16 0.16 98 1012.7
20260507010207 52 175 0.0 0.0 0.00 0.16 0.16 98 1012.5
20260507005705 52 175 0.0 0.0 0.00 0.16 0.16 98 1012.3
20260507005201 52 175 0.0 0.0 0.00 0.16 0.16 98 1012.1
20260507004657 52 173 0.0 0.0 0.00 0.16 0.16 98 1012.1
20260507004155 52 172 0.0 0.0 0.00 0.16 0.16 97 1012.0
20260507003651 52 176 0.0 0.0 0.00 0.16 0.16 97 1011.9
20260507003151 52 191 0.0 0.0 0.00 0.16 0.16 97 1012.1
20260507002648 52 172 0.0 0.0 0.00 0.16 0.16 97 1011.8
20260507002144 52 175 1.0 1.0 0.00 0.16 0.16 97 1011.9
20260507001641 53 170 0.0 0.0 0.00 0.16 0.16 98 1011.5
20260507001138 53 215 0.0 0.0 0.00 0.16 0.16 98 1011.6
20260507000634 53 212 1.0 2.0 0.00 0.16 0.16 98 1011.1
20260507000130 53 171 0.0 0.0 0.00 0.16 0.16 97 1010.6
20260506235628 53 179 0.0 0.0 0.00 0.16 0.16 97 1011.0
20260506235127 54 177 0.0 0.0 0.00 0.16 0.16 97 1011.4
20260506234625 54 178 0.0 0.0 0.00 0.16 0.16 97 1011.7
20260506234122 54 168 0.0 0.0 0.00 0.16 0.16 97 1011.1
20260506233619 54 175 0.0 0.0 0.00 0.16 0.16 96 1012.3
20260506233116 54 170 0.0 0.0 0.00 0.16 0.16 96 1012.1
20260506232612 54 176 0.0 0.0 0.00 0.16 0.16 95 1012.2
20260506232108 54 179 0.0 0.0 0.00 0.16 0.16 95 1012.3
20260506231605 55 198 0.0 0.0 0.00 0.16 0.16 95 1012.5
20260506231103 55 235 0.0 0.0 0.00 0.16 0.16 95 1012.6
20260506230559 55 217 0.0 0.0 0.00 0.16 0.16 94 1012.6
20260506230057 55 169 0.0 0.0 0.00 0.16 0.16 94 1012.6
20260506225553 55 182 0.0 0.0 0.00 0.16 0.16 94 1012.8
20260506225050 56 184 0.0 0.0 0.00 0.16 0.16 94 1012.6
20260506224547 56 174 0.0 0.0 0.00 0.16 0.16 93 1012.2
20260506224043 56 175 0.0 0.0 0.00 0.16 0.16 91 1012.6
20260506223539 56 178 0.0 0.0 0.00 0.16 0.16 90 1012.3
20260506223036 56 172 0.0 0.0 0.00 0.16 0.16 93 1012.1
20260506222533 57 174 0.0 0.0 0.00 0.16 0.16 92 1012.3
20260506222029 57 209 1.0 1.0 0.00 0.16 0.16 89 1012.4
20260506221527 56 179 0.0 0.0 0.00 0.16 0.16 89 1012.1
20260506221025 56 171 0.0 0.0 0.00 0.16 0.16 92 1011.8
20260506220520 57 176 0.0 0.0 0.00 0.16 0.16 92 1012.0
20260506220016 57 172 0.0 0.0 0.00 0.16 0.16 91 1012.0
20260506215513 57 192 0.0 0.0 0.00 0.16 0.16 90 1012.3
20260506215009 57 201 0.0 0.0 0.00 0.16 0.16 88 1012.2
20260506214506 57 253 1.0 2.0 0.00 0.16 0.16 88 1012.0
20260506214003 57 214 0.0 0.0 0.00 0.16 0.16 88 1012.1
20260506213501 57 244 2.0 2.0 0.00 0.16 0.16 89 1011.4
20260506212958 57 169 0.0 0.0 0.00 0.16 0.16 90 1011.2
20260506212454 57 180 0.0 0.0 0.00 0.16 0.16 90 1011.4
20260506211949 57 177 0.0 0.0 0.00 0.16 0.16 93 1011.2
20260506211445 57 176 0.0 0.0 0.00 0.16 0.16 94 1011.0
20260506210943 56 180 0.0 0.0 0.00 0.16 0.16 93 1011.2
20260506210439 57 171 0.0 0.0 0.00 0.16 0.16 94 1010.9
20260506205936 57 195 0.0 0.0 0.00 0.16 0.16 94 1011.5
20260506205432 57 175 0.0 0.0 0.00 0.16 0.16 94 1011.4
20260506204928 57 175 0.0 0.0 0.00 0.16 0.16 91 1012.0
20260506204427 56 193 0.0 0.0 0.00 0.16 0.16 91 1011.9
20260506203924 57 258 0.0 0.0 0.00 0.16 0.16 92 1011.7
20260506203420 56 175 0.0 0.0 0.00 0.16 0.16 93 1011.8
20260506202918 56 189 0.0 0.0 0.00 0.16 0.16 93 1011.8
20260506202415 57 179 0.0 0.0 0.00 0.16 0.16 94 1011.7
20260506201911 56 177 0.0 0.0 0.00 0.16 0.16 94 1011.7
20260506201409 57 180 0.0 0.0 0.00 0.16 0.16 93 1011.6
20260506200905 57 176 0.0 0.0 0.00 0.16 0.16 92 1011.6
20260506200401 57 181 0.0 0.0 0.00 0.16 0.16 92 1011.7
20260506195858 56 179 0.0 0.0 0.00 0.16 0.16 91 1011.9
20260506195355 56 171 0.0 0.0 0.00 0.16 0.16 94 1011.4
20260506194851 56 171 0.0 0.0 0.00 0.16 0.16 92 1011.4
20260506194348 56 172 0.0 0.0 0.00 0.16 0.16 90 1011.4
20260506193846 56 192 0.0 0.0 0.00 0.16 0.16 90 1011.4
20260506193343 56 205 2.0 2.0 0.00 0.16 0.16 89 1011.5
20260506192839 56 298 0.0 1.0 0.00 0.16 0.16 89 1011.9
20260506192336 57 270 1.0 1.0 0.00 0.16 0.16 90 1011.8
20260506191833 57 209 2.0 3.0 0.00 0.16 0.16 91 1011.4
20260506191329 56 171 0.0 0.0 0.00 0.16 0.16 91 1011.5
20260506190826 56 271 0.0 0.0 0.00 0.16 0.16 94 1011.4
20260506190322 55 218 1.0 1.0 0.00 0.16 0.16 96 1011.6
20260506185820 55 171 0.0 0.0 0.00 0.16 0.16 96 1011.9
20260506185316 54 172 0.0 0.0 0.00 0.16 0.16 96 1012.1
20260506184814 55 228 0.0 0.0 0.00 0.16 0.16 95 1012.5
20260506184311 54 181 0.0 0.0 0.00 0.16 0.16 95 1012.6
20260506183808 54 184 0.0 0.0 0.00 0.16 0.16 95 1012.7
20260506183303 54 181 0.0 0.0 0.00 0.16 0.16 95 1012.4
20260506182800 54 182 0.0 0.0 0.00 0.16 0.16 95 1012.6
20260506182257 54 181 0.0 0.0 0.00 0.16 0.16 95 1012.4
20260506181755 54 191 0.0 0.0 0.00 0.16 0.16 95 1012.3
20260506181253 54 218 0.0 1.0 0.00 0.16 0.16 95 1012.2
20260506180750 54 176 0.0 0.0 0.00 0.16 0.16 96 1012.2
20260506180245 54 209 0.0 0.0 0.00 0.16 0.16 96 1011.8
20260506175742 54 182 0.0 0.0 0.00 0.16 0.16 96 1012.0
20260506175239 53 181 0.0 0.0 0.00 0.16 0.16 96 1011.7
20260506174737 53 181 0.0 0.0 0.00 0.16 0.16 97 1011.6
20260506174233 53 290 1.0 2.0 0.00 0.16 0.16 97 1011.8
20260506173732 53 170 0.0 0.0 0.00 0.16 0.16 97 1011.4
20260506173228 53 174 0.0 0.0 0.00 0.16 0.16 97 1011.1
20260506172725 53 210 0.0 0.0 0.00 0.16 0.16 97 1011.6
20260506172221 53 257 0.0 1.0 0.00 0.16 0.16 98 1011.5
20260506171719 53 180 0.0 0.0 0.00 0.16 0.16 98 1011.4
20260506171216 53 181 0.0 0.0 0.00 0.16 0.16 98 1011.3
20260506170713 52 173 0.0 0.0 0.00 0.16 0.16 97 1011.2
20260506170210 52 250 1.0 1.0 0.00 0.16 0.16 97 1011.5
20260506165709 52 194 0.0 1.0 0.00 0.16 0.16 97 1012.0
20260506165205 52 172 0.0 0.0 0.00 0.16 0.16 97 1012.0
20260506164702 52 177 0.0 0.0 0.00 0.16 0.16 98 1011.9
20260506164159 51 174 0.0 0.0 0.00 0.16 0.16 98 1011.9
20260506163655 52 181 0.0 0.0 0.00 0.16 0.16 98 1011.9
20260506163151 52 173 0.0 0.0 0.00 0.16 0.16 98 1011.9
20260506162647 51 181 0.0 0.0 0.00 0.16 0.16 98 1012.0
20260506162144 52 173 0.0 0.0 0.00 0.16 0.16 98 1011.7
20260506161642 51 195 1.0 1.0 0.00 0.16 0.16 98 1011.9
20260506161138 51 203 1.0 1.0 0.00 0.16 0.16 98 1011.4
20260506160636 51 181 0.0 0.0 0.00 0.16 0.16 98 1011.8
20260506160133 51 221 0.0 0.0 0.00 0.16 0.16 98 1011.6
20260506155632 51 184 0.0 1.0 0.00 0.16 0.16 98 1011.7
20260506155128 51 199 0.0 0.0 0.00 0.16 0.16 98 1011.7
20260506153230 52 177 0.0 0.0 0.00 0.16 0.16 98 1011.9
20260506152727 52 173 0.0 0.0 0.00 0.16 0.16 99 1011.6
20260506152224 52 172 0.0 0.0 0.00 0.16 0.16 99 1011.4
20260506151724 51 212 1.0 1.0 0.00 0.16 0.16 99 1011.7
20260506151220 51 177 0.0 0.0 0.00 0.16 0.16 99 1011.3
20260506150716 51 173 0.0 0.0 0.00 0.16 0.16 99 1011.0
20260506150213 51 233 2.0 3.0 0.00 0.16 0.16 99 1011.5
20260506145710 51 290 1.0 1.0 0.00 0.16 0.16 99 1011.4
20260506145207 51 210 0.0 0.0 0.00 0.16 0.16 99 1011.4
20260506144704 51 183 0.0 0.0 0.00 0.16 0.16 99 1011.1
20260506144201 51 225 0.0 0.0 0.00 0.16 0.16 99 1010.8
20260506143659 51 174 0.0 0.0 0.00 0.16 0.16 99 1010.8
20260506143156 52 258 1.0 1.0 0.00 0.16 0.16 99 1010.8
20260506142655 51 178 0.0 0.0 0.00 0.16 0.16 99 1010.4
20260506142152 51 172 0.0 1.0 0.05 0.16 0.16 99 1010.6